Year,Month,Day,Hour,Minute,Value (Times are PST for temperature in C)
2010,11,17,00,00,9.30
2010,11,17,00,01,9.30
2010,11,17,00,02,9.30
2010,11,17,00,03,9.30
2010,11,17,00,04,9.30
2010,11,17,00,05,9.30
2010,11,17,00,06,9.30
2010,11,17,00,07,9.30
2010,11,17,00,08,9.20
2010,11,17,00,09,9.20
2010,11,17,00,10,9.20
2010,11,17,00,11,9.20
2010,11,17,00,12,9.20
2010,11,17,00,13,9.20
2010,11,17,00,14,9.10
2010,11,17,00,15,9.10
2010,11,17,00,16,9.10
2010,11,17,00,17,9.10
2010,11,17,00,18,9.00
2010,11,17,00,19,9.00
2010,11,17,00,20,9.00
2010,11,17,00,21,8.90
2010,11,17,00,22,8.90
2010,11,17,00,23,8.90
2010,11,17,00,24,8.90
2010,11,17,00,25,8.90
2010,11,17,00,26,8.90
2010,11,17,00,27,8.90
2010,11,17,00,28,8.90
2010,11,17,00,29,8.80
2010,11,17,00,30,8.80
2010,11,17,00,31,8.80
2010,11,17,00,32,8.80
2010,11,17,00,33,8.80
2010,11,17,00,34,8.80
2010,11,17,00,35,8.80
2010,11,17,00,36,8.80
2010,11,17,00,37,8.80
2010,11,17,00,38,8.80
2010,11,17,00,39,8.80
2010,11,17,00,40,8.80
2010,11,17,00,41,8.80
2010,11,17,00,42,8.80
2010,11,17,00,43,8.80
2010,11,17,00,44,8.80
2010,11,17,00,45,8.80
2010,11,17,00,46,8.80
2010,11,17,00,47,8.80
2010,11,17,00,48,8.80
2010,11,17,00,49,8.70
2010,11,17,00,50,8.70
2010,11,17,00,51,8.70
2010,11,17,00,52,8.70
2010,11,17,00,53,8.70
2010,11,17,00,54,8.70
2010,11,17,00,55,8.70
2010,11,17,00,56,8.70
2010,11,17,00,57,8.70
2010,11,17,00,58,8.70
2010,11,17,00,59,8.70
2010,11,17,01,00,8.70
2010,11,17,01,01,8.70
2010,11,17,01,02,8.70
2010,11,17,01,03,8.60
2010,11,17,01,04,8.60
2010,11,17,01,05,8.60
2010,11,17,01,06,8.60
2010,11,17,01,07,8.60
2010,11,17,01,08,8.60
2010,11,17,01,09,8.60
2010,11,17,01,10,8.60
2010,11,17,01,11,8.60
2010,11,17,01,12,8.50
2010,11,17,01,13,8.50
2010,11,17,01,14,8.50
2010,11,17,01,15,8.50
2010,11,17,01,16,8.40
2010,11,17,01,17,8.40
2010,11,17,01,18,8.40
2010,11,17,01,19,8.40
2010,11,17,01,20,8.40
2010,11,17,01,21,8.40
2010,11,17,01,22,8.40
2010,11,17,01,23,8.40
2010,11,17,01,24,8.30
2010,11,17,01,25,8.30
2010,11,17,01,26,8.30
2010,11,17,01,27,8.30
2010,11,17,01,28,8.30
2010,11,17,01,29,8.30
2010,11,17,01,30,8.30
2010,11,17,01,31,8.30
2010,11,17,01,32,8.30
2010,11,17,01,33,8.30
2010,11,17,01,34,8.30
2010,11,17,01,35,8.30
2010,11,17,01,36,8.30
2010,11,17,01,37,8.30
2010,11,17,01,38,8.20
2010,11,17,01,39,8.20
2010,11,17,01,40,8.20
2010,11,17,01,41,8.20
2010,11,17,01,42,8.20
2010,11,17,01,43,8.20
2010,11,17,01,44,8.20
2010,11,17,01,45,8.10
2010,11,17,01,46,8.10
2010,11,17,01,47,8.10
2010,11,17,01,48,8.10
2010,11,17,01,49,8.20
2010,11,17,01,50,8.10
2010,11,17,01,51,8.10
2010,11,17,01,52,8.20
2010,11,17,01,53,8.20
2010,11,17,01,54,8.20
2010,11,17,01,55,8.20
2010,11,17,01,56,8.20
2010,11,17,01,57,8.20
2010,11,17,01,58,8.20
2010,11,17,01,59,8.20
2010,11,17,02,00,8.20
2010,11,17,02,01,8.20
2010,11,17,02,02,8.20
2010,11,17,02,03,8.20
2010,11,17,02,04,8.20
2010,11,17,02,05,8.20
2010,11,17,02,06,8.20
2010,11,17,02,07,8.20
2010,11,17,02,08,8.20
2010,11,17,02,09,8.20
2010,11,17,02,10,8.20
2010,11,17,02,11,8.20
2010,11,17,02,12,8.20
2010,11,17,02,13,8.20
2010,11,17,02,14,8.20
2010,11,17,02,15,8.20
2010,11,17,02,16,8.20
2010,11,17,02,17,8.20
2010,11,17,02,18,8.20
2010,11,17,02,19,8.20
2010,11,17,02,20,8.30
2010,11,17,02,21,8.30
2010,11,17,02,22,8.30
2010,11,17,02,23,8.30
2010,11,17,02,24,8.30
2010,11,17,02,25,8.30
2010,11,17,02,26,8.30
2010,11,17,02,27,8.30
2010,11,17,02,28,8.30
2010,11,17,02,29,8.30
2010,11,17,02,30,8.30
2010,11,17,02,31,8.30
2010,11,17,02,32,8.30
2010,11,17,02,33,8.30
2010,11,17,02,34,8.30
2010,11,17,02,35,8.30
2010,11,17,02,36,8.30
2010,11,17,02,37,8.30
2010,11,17,02,38,8.30
2010,11,17,02,39,8.30
2010,11,17,02,40,8.40
2010,11,17,02,41,8.40
2010,11,17,02,42,8.40
2010,11,17,02,43,8.40
2010,11,17,02,44,8.40
2010,11,17,02,45,8.40
2010,11,17,02,46,8.40
2010,11,17,02,47,8.40
2010,11,17,02,48,8.40
2010,11,17,02,49,8.30
2010,11,17,02,50,8.30
2010,11,17,02,51,8.30
2010,11,17,02,52,8.30
2010,11,17,02,53,8.30
2010,11,17,02,54,8.30
2010,11,17,02,55,8.30
2010,11,17,02,56,8.40
2010,11,17,02,57,8.30
2010,11,17,02,58,8.30
2010,11,17,02,59,8.30
2010,11,17,03,00,8.30
2010,11,17,03,01,8.30
2010,11,17,03,02,8.30
2010,11,17,03,03,8.30
2010,11,17,03,04,8.30
2010,11,17,03,05,8.30
2010,11,17,03,06,8.30
2010,11,17,03,07,8.30
2010,11,17,03,08,8.30
2010,11,17,03,09,8.30
2010,11,17,03,10,8.30
2010,11,17,03,11,8.30
2010,11,17,03,12,8.20
2010,11,17,03,13,8.20
2010,11,17,03,14,8.20
2010,11,17,03,15,8.20
2010,11,17,03,16,8.20
2010,11,17,03,17,8.20
2010,11,17,03,18,8.20
2010,11,17,03,19,8.20
2010,11,17,03,20,8.20
2010,11,17,03,21,8.20
2010,11,17,03,22,8.20
2010,11,17,03,23,8.20
2010,11,17,03,24,8.10
2010,11,17,03,25,8.10
2010,11,17,03,26,8.10
2010,11,17,03,27,8.10
2010,11,17,03,28,8.10
2010,11,17,03,29,8.10
2010,11,17,03,30,8.10
2010,11,17,03,31,8.10
2010,11,17,03,32,8.10
2010,11,17,03,33,8.10
2010,11,17,03,34,8.10
2010,11,17,03,35,8.10
2010,11,17,03,36,8.10
2010,11,17,03,37,8.10
2010,11,17,03,38,8.10
2010,11,17,03,39,8.10
2010,11,17,03,40,8.10
2010,11,17,03,41,8.10
2010,11,17,03,42,8.10
2010,11,17,03,43,8.10
2010,11,17,03,44,8.10
2010,11,17,03,45,8.10
2010,11,17,03,46,8.10
2010,11,17,03,47,8.10
2010,11,17,03,48,8.10
2010,11,17,03,49,8.10
2010,11,17,03,50,8.10
2010,11,17,03,51,8.10
2010,11,17,03,52,8.10
2010,11,17,03,53,8.10
2010,11,17,03,54,8.10
2010,11,17,03,55,8.10
2010,11,17,03,56,8.10
2010,11,17,03,57,8.10
2010,11,17,03,58,8.10
2010,11,17,03,59,8.10
2010,11,17,04,00,8.10
2010,11,17,04,01,8.10
2010,11,17,04,02,8.10
2010,11,17,04,03,8.10
2010,11,17,04,04,8.10
2010,11,17,04,05,8.10
2010,11,17,04,06,8.10
2010,11,17,04,07,8.10
2010,11,17,04,08,8.10
2010,11,17,04,09,8.20
2010,11,17,04,10,8.20
2010,11,17,04,11,8.20
2010,11,17,04,12,8.20
2010,11,17,04,13,8.20
2010,11,17,04,14,8.20
2010,11,17,04,15,8.20
2010,11,17,04,16,8.20
2010,11,17,04,17,8.20
2010,11,17,04,18,8.20
2010,11,17,04,19,8.20
2010,11,17,04,20,8.10
2010,11,17,04,21,8.20
2010,11,17,04,22,8.20
2010,11,17,04,23,8.20
2010,11,17,04,24,8.20
2010,11,17,04,25,8.20
2010,11,17,04,26,8.20
2010,11,17,04,27,8.20
2010,11,17,04,28,8.20
2010,11,17,04,29,8.20
2010,11,17,04,30,8.20
2010,11,17,04,31,8.20
2010,11,17,04,32,8.20
2010,11,17,04,33,8.10
2010,11,17,04,34,8.10
2010,11,17,04,35,8.20
2010,11,17,04,36,8.20
2010,11,17,04,37,8.20
2010,11,17,04,38,8.20
2010,11,17,04,39,8.20
2010,11,17,04,40,8.20
2010,11,17,04,41,8.20
2010,11,17,04,42,8.20
2010,11,17,04,43,8.20
2010,11,17,04,44,8.20
2010,11,17,04,45,8.20
2010,11,17,04,46,8.20
2010,11,17,04,47,8.20
2010,11,17,04,48,8.20
2010,11,17,04,49,8.20
2010,11,17,04,50,8.20
2010,11,17,04,51,8.20
2010,11,17,04,52,8.20
2010,11,17,04,53,8.20
2010,11,17,04,54,8.20
2010,11,17,04,55,8.20
2010,11,17,04,56,8.20
2010,11,17,04,57,8.20
2010,11,17,04,58,8.20
2010,11,17,04,59,8.20
2010,11,17,05,00,8.20
2010,11,17,05,01,8.20
2010,11,17,05,02,8.20
2010,11,17,05,03,8.20
2010,11,17,05,04,8.20
2010,11,17,05,05,8.20
2010,11,17,05,06,8.20
2010,11,17,05,07,8.20
2010,11,17,05,08,8.20
2010,11,17,05,09,8.20
2010,11,17,05,10,8.20
2010,11,17,05,11,8.20
2010,11,17,05,12,8.20
2010,11,17,05,13,8.20
2010,11,17,05,14,8.10
2010,11,17,05,15,8.10
2010,11,17,05,16,8.10
2010,11,17,05,17,8.10
2010,11,17,05,18,8.10
2010,11,17,05,19,8.10
2010,11,17,05,20,8.20
2010,11,17,05,21,8.20
2010,11,17,05,22,8.20
2010,11,17,05,23,8.20
2010,11,17,05,24,8.20
2010,11,17,05,25,8.20
2010,11,17,05,26,8.20
2010,11,17,05,27,8.20
2010,11,17,05,28,8.20
2010,11,17,05,29,8.20
2010,11,17,05,30,8.20
2010,11,17,05,31,8.20
2010,11,17,05,32,8.20
2010,11,17,05,33,8.20
2010,11,17,05,34,8.10
2010,11,17,05,35,8.10
2010,11,17,05,36,8.10
2010,11,17,05,37,8.10
2010,11,17,05,38,8.10
2010,11,17,05,39,8.10
2010,11,17,05,40,8.10
2010,11,17,05,41,8.10
2010,11,17,05,42,8.10
2010,11,17,05,43,8.10
2010,11,17,05,44,8.10
2010,11,17,05,45,8.10
2010,11,17,05,46,8.20
2010,11,17,05,47,8.20
2010,11,17,05,48,8.20
2010,11,17,05,49,8.20
2010,11,17,05,50,8.30
2010,11,17,05,51,8.40
2010,11,17,05,52,8.40
2010,11,17,05,53,8.40
2010,11,17,05,54,8.40
2010,11,17,05,55,8.40
2010,11,17,05,56,8.40
2010,11,17,05,57,8.40
2010,11,17,05,58,8.40
2010,11,17,05,59,8.40
2010,11,17,06,00,8.40
2010,11,17,06,01,8.40
2010,11,17,06,02,8.40
2010,11,17,06,03,8.40
2010,11,17,06,04,8.40
2010,11,17,06,05,8.40
2010,11,17,06,06,8.40
2010,11,17,06,07,8.40
2010,11,17,06,08,8.50
2010,11,17,06,09,8.50
2010,11,17,06,10,8.60
2010,11,17,06,11,8.60
2010,11,17,06,12,8.60
2010,11,17,06,13,8.60
2010,11,17,06,14,8.60
2010,11,17,06,15,8.60
2010,11,17,06,16,8.60
2010,11,17,06,17,8.60
2010,11,17,06,18,8.60
2010,11,17,06,19,8.60
2010,11,17,06,20,8.60
2010,11,17,06,21,8.60
2010,11,17,06,22,8.60
2010,11,17,06,23,8.60
2010,11,17,06,24,8.60
2010,11,17,06,25,8.60
2010,11,17,06,26,8.60
2010,11,17,06,27,8.60
2010,11,17,06,28,8.60
2010,11,17,06,29,8.60
2010,11,17,06,30,8.60
2010,11,17,06,31,8.60
2010,11,17,06,32,8.50
2010,11,17,06,33,8.50
2010,11,17,06,34,8.50
2010,11,17,06,35,8.50
2010,11,17,06,36,8.40
2010,11,17,06,37,8.40
2010,11,17,06,38,8.40
2010,11,17,06,39,8.40
2010,11,17,06,40,8.40
2010,11,17,06,41,8.40
2010,11,17,06,42,8.40
2010,11,17,06,43,8.40
2010,11,17,06,44,8.40
2010,11,17,06,45,8.40
2010,11,17,06,46,8.30
2010,11,17,06,47,8.30
2010,11,17,06,48,8.30
2010,11,17,06,49,8.30
2010,11,17,06,50,8.30
2010,11,17,06,51,8.20
2010,11,17,06,52,8.20
2010,11,17,06,53,8.20
2010,11,17,06,54,8.20
2010,11,17,06,55,8.20
2010,11,17,06,56,8.20
2010,11,17,06,57,8.20
2010,11,17,06,58,8.20
2010,11,17,06,59,8.20
2010,11,17,07,00,8.20
2010,11,17,07,01,8.20
2010,11,17,07,02,8.20
2010,11,17,07,03,8.20
2010,11,17,07,04,8.20
2010,11,17,07,05,8.20
2010,11,17,07,06,8.20
2010,11,17,07,07,8.20
2010,11,17,07,08,8.20
2010,11,17,07,09,8.20
2010,11,17,07,10,8.20
2010,11,17,07,11,8.20
2010,11,17,07,12,8.20
2010,11,17,07,13,8.20
2010,11,17,07,14,8.20
2010,11,17,07,15,8.20
2010,11,17,07,16,8.20
2010,11,17,07,17,8.20
2010,11,17,07,18,8.20
2010,11,17,07,19,8.20
2010,11,17,07,20,8.20
2010,11,17,07,21,8.30
2010,11,17,07,22,8.30
2010,11,17,07,23,8.30
2010,11,17,07,24,8.30
2010,11,17,07,25,8.30
2010,11,17,07,26,8.30
2010,11,17,07,27,8.30
2010,11,17,07,28,8.30
2010,11,17,07,29,8.30
2010,11,17,07,30,8.30
2010,11,17,07,31,8.30
2010,11,17,07,32,8.30
2010,11,17,07,33,8.30
2010,11,17,07,34,8.30
2010,11,17,07,35,8.20
2010,11,17,07,36,8.20
2010,11,17,07,37,8.20
2010,11,17,07,38,8.20
2010,11,17,07,39,8.20
2010,11,17,07,40,8.20
2010,11,17,07,41,8.20
2010,11,17,07,42,8.20
2010,11,17,07,43,8.20
2010,11,17,07,44,8.20
2010,11,17,07,45,8.10
2010,11,17,07,46,8.10
2010,11,17,07,47,8.10
2010,11,17,07,48,8.10
2010,11,17,07,49,8.10
2010,11,17,07,50,8.10
2010,11,17,07,51,8.10
2010,11,17,07,52,8.10
2010,11,17,07,53,8.10
2010,11,17,07,54,8.10
2010,11,17,07,55,8.20
2010,11,17,07,56,8.20
2010,11,17,07,57,8.20
2010,11,17,07,58,8.20
2010,11,17,07,59,8.20
2010,11,17,08,00,8.20
2010,11,17,08,01,8.20
2010,11,17,08,02,8.30
2010,11,17,08,03,8.30
2010,11,17,08,04,8.40
2010,11,17,08,05,8.40
2010,11,17,08,06,8.50
2010,11,17,08,07,8.50
2010,11,17,08,08,8.60
2010,11,17,08,09,8.60
2010,11,17,08,10,8.60
2010,11,17,08,11,8.60
2010,11,17,08,12,8.60
2010,11,17,08,13,8.60
2010,11,17,08,14,8.60
2010,11,17,08,15,8.60
2010,11,17,08,16,8.70
2010,11,17,08,17,8.70
2010,11,17,08,18,8.70
2010,11,17,08,19,8.70
2010,11,17,08,20,8.80
2010,11,17,08,21,8.80
2010,11,17,08,22,8.80
2010,11,17,08,23,8.80
2010,11,17,08,24,8.80
2010,11,17,08,25,8.80
2010,11,17,08,26,8.80
2010,11,17,08,27,8.80
2010,11,17,08,28,8.80
2010,11,17,08,29,8.80
2010,11,17,08,30,8.80
2010,11,17,08,31,8.80
2010,11,17,08,32,8.90
2010,11,17,08,33,8.90
2010,11,17,08,34,8.90
2010,11,17,08,35,8.90
2010,11,17,08,36,8.90
2010,11,17,08,37,8.90
2010,11,17,08,38,8.90
2010,11,17,08,39,9.00
2010,11,17,08,40,9.00
2010,11,17,08,41,9.00
2010,11,17,08,42,9.00
2010,11,17,08,43,9.00
2010,11,17,08,44,9.00
2010,11,17,08,45,9.10
2010,11,17,08,46,9.10
2010,11,17,08,47,9.10
2010,11,17,08,48,9.10
2010,11,17,08,49,9.10
2010,11,17,08,50,9.00
2010,11,17,08,51,9.00
2010,11,17,08,52,8.90
2010,11,17,08,53,8.90
2010,11,17,08,54,8.80
2010,11,17,08,55,8.80
2010,11,17,08,56,8.70
2010,11,17,08,57,8.70
2010,11,17,08,58,8.60
2010,11,17,08,59,8.50
2010,11,17,09,00,8.50
2010,11,17,09,01,8.40
2010,11,17,09,02,8.40
2010,11,17,09,03,8.30
2010,11,17,09,04,8.30
2010,11,17,09,05,8.30
2010,11,17,09,06,8.30
2010,11,17,09,07,8.20
2010,11,17,09,08,8.20
2010,11,17,09,09,8.20
2010,11,17,09,10,8.10
2010,11,17,09,11,8.10
2010,11,17,09,12,8.00
2010,11,17,09,13,8.00
2010,11,17,09,14,7.90
2010,11,17,09,15,7.90
2010,11,17,09,16,7.80
2010,11,17,09,17,7.80
2010,11,17,09,18,7.80
2010,11,17,09,19,7.70
2010,11,17,09,20,7.70
2010,11,17,09,21,7.60
2010,11,17,09,22,7.60
2010,11,17,09,23,7.60
2010,11,17,09,24,7.50
2010,11,17,09,25,7.50
2010,11,17,09,26,7.40
2010,11,17,09,27,7.40
2010,11,17,09,28,7.40
2010,11,17,09,29,7.40
2010,11,17,09,30,7.40
2010,11,17,09,31,7.30
2010,11,17,09,32,7.30
2010,11,17,09,33,7.30
2010,11,17,09,34,7.30
2010,11,17,09,35,7.30
2010,11,17,09,36,7.30
2010,11,17,09,37,7.20
2010,11,17,09,38,7.20
2010,11,17,09,39,7.20
2010,11,17,09,40,7.20
2010,11,17,09,41,7.20
2010,11,17,09,42,7.20
2010,11,17,09,43,7.10
2010,11,17,09,44,7.10
2010,11,17,09,45,7.10
2010,11,17,09,46,7.10
2010,11,17,09,47,7.10
2010,11,17,09,48,7.00
2010,11,17,09,49,7.00
2010,11,17,09,50,7.00
2010,11,17,09,51,7.00
2010,11,17,09,52,6.90
2010,11,17,09,53,6.90
2010,11,17,09,54,6.90
2010,11,17,09,55,6.90
2010,11,17,09,56,6.90
2010,11,17,09,57,6.80
2010,11,17,09,58,6.80
2010,11,17,09,59,6.80
2010,11,17,10,00,6.80
2010,11,17,10,01,6.70
2010,11,17,10,02,6.70
2010,11,17,10,03,6.70
2010,11,17,10,04,6.60
2010,11,17,10,05,6.60
2010,11,17,10,06,6.50
2010,11,17,10,07,6.50
2010,11,17,10,08,6.40
2010,11,17,10,09,6.40
2010,11,17,10,10,6.40
2010,11,17,10,11,6.40
2010,11,17,10,12,6.40
2010,11,17,10,13,6.30
2010,11,17,10,14,6.30
2010,11,17,10,15,6.30
2010,11,17,10,16,6.30
2010,11,17,10,17,6.30
2010,11,17,10,18,6.30
2010,11,17,10,19,6.30
2010,11,17,10,20,6.30
2010,11,17,10,21,6.20
2010,11,17,10,22,6.20
2010,11,17,10,23,6.20
2010,11,17,10,24,6.20
2010,11,17,10,25,6.20
2010,11,17,10,26,6.20
2010,11,17,10,27,6.20
2010,11,17,10,28,6.20
2010,11,17,10,29,6.20
2010,11,17,10,30,6.20
2010,11,17,10,31,6.20
2010,11,17,10,32,6.20
2010,11,17,10,33,6.20
2010,11,17,10,34,6.20
2010,11,17,10,35,6.10
2010,11,17,10,36,6.10
2010,11,17,10,37,6.20
2010,11,17,10,38,6.20
2010,11,17,10,39,6.20
2010,11,17,10,40,6.20
2010,11,17,10,41,6.20
2010,11,17,10,42,6.20
2010,11,17,10,43,6.20
2010,11,17,10,44,6.20
2010,11,17,10,45,6.20
2010,11,17,10,46,6.20
2010,11,17,10,47,6.20
2010,11,17,10,48,6.20
2010,11,17,10,49,6.20
2010,11,17,10,50,6.20
2010,11,17,10,51,6.20
2010,11,17,10,52,6.20
2010,11,17,10,53,6.20
2010,11,17,10,54,6.20
2010,11,17,10,55,6.20
2010,11,17,10,56,6.20
2010,11,17,10,57,6.20
2010,11,17,10,58,6.20
2010,11,17,10,59,6.20
2010,11,17,11,00,6.20
2010,11,17,11,01,6.20
2010,11,17,11,02,6.20
2010,11,17,11,03,6.30
2010,11,17,11,04,6.30
2010,11,17,11,05,6.30
2010,11,17,11,06,6.30
2010,11,17,11,07,6.40
2010,11,17,11,08,6.40
2010,11,17,11,09,6.40
2010,11,17,11,10,6.50
2010,11,17,11,11,6.50
2010,11,17,11,12,6.60
2010,11,17,11,13,6.60
2010,11,17,11,14,6.60
2010,11,17,11,15,6.60
2010,11,17,11,16,6.70
2010,11,17,11,17,6.70
2010,11,17,11,18,6.70
2010,11,17,11,19,6.70
2010,11,17,11,20,6.70
2010,11,17,11,21,6.80
2010,11,17,11,22,6.80
2010,11,17,11,23,6.80
2010,11,17,11,24,6.80
2010,11,17,11,25,6.80
2010,11,17,11,26,6.80
2010,11,17,11,27,6.80
2010,11,17,11,28,6.80
2010,11,17,11,29,6.80
2010,11,17,11,30,6.90
2010,11,17,11,31,6.90
2010,11,17,11,32,6.90
2010,11,17,11,33,6.90
2010,11,17,11,34,6.90
2010,11,17,11,35,6.90
2010,11,17,11,36,7.00
2010,11,17,11,37,7.00
2010,11,17,11,38,7.00
2010,11,17,11,39,7.10
2010,11,17,11,40,7.10
2010,11,17,11,41,7.10
2010,11,17,11,42,7.10
2010,11,17,11,43,7.10
2010,11,17,11,44,7.20
2010,11,17,11,45,7.20
2010,11,17,11,46,7.20
2010,11,17,11,47,7.20
2010,11,17,11,48,7.30
2010,11,17,11,49,7.30
2010,11,17,11,50,7.30
2010,11,17,11,51,7.30
2010,11,17,11,52,7.30
2010,11,17,11,53,7.30
2010,11,17,11,54,7.30
2010,11,17,11,55,7.30
2010,11,17,11,56,7.40
2010,11,17,11,57,7.40
2010,11,17,11,58,7.40
2010,11,17,11,59,7.40
2010,11,17,12,00,7.40
2010,11,17,12,01,7.40
2010,11,17,12,02,7.40
2010,11,17,12,03,7.40
2010,11,17,12,04,7.40
2010,11,17,12,05,7.40
2010,11,17,12,06,7.40
2010,11,17,12,07,7.40
2010,11,17,12,08,7.40
2010,11,17,12,09,7.40
2010,11,17,12,10,7.50
2010,11,17,12,11,7.50
2010,11,17,12,12,7.50
2010,11,17,12,13,7.60
2010,11,17,12,14,7.60
2010,11,17,12,15,7.60
2010,11,17,12,16,7.70
2010,11,17,12,17,7.70
2010,11,17,12,18,7.70
2010,11,17,12,19,7.80
2010,11,17,12,20,7.80
2010,11,17,12,21,7.80
2010,11,17,12,22,7.80
2010,11,17,12,23,7.80
2010,11,17,12,24,7.80
2010,11,17,12,25,7.80
2010,11,17,12,26,7.80
2010,11,17,12,27,7.80
2010,11,17,12,28,7.80
2010,11,17,12,29,7.80
2010,11,17,12,30,7.80
2010,11,17,12,31,7.80
2010,11,17,12,32,7.80
2010,11,17,12,33,7.80
2010,11,17,12,34,7.80
2010,11,17,12,35,7.80
2010,11,17,12,36,7.80
2010,11,17,12,37,7.80
2010,11,17,12,38,7.70
2010,11,17,12,39,7.70
2010,11,17,12,40,7.70
2010,11,17,12,41,7.70
2010,11,17,12,42,7.60
2010,11,17,12,43,7.60
2010,11,17,12,44,7.60
2010,11,17,12,45,7.50
2010,11,17,12,46,7.50
2010,11,17,12,47,7.40
2010,11,17,12,48,7.40
2010,11,17,12,49,7.30
2010,11,17,12,50,7.30
2010,11,17,12,51,7.30
2010,11,17,12,52,7.30
2010,11,17,12,53,7.30
2010,11,17,12,54,7.30
2010,11,17,12,55,7.30
2010,11,17,12,56,7.30
2010,11,17,12,57,7.30
2010,11,17,12,58,7.30
2010,11,17,12,59,7.30
2010,11,17,13,00,7.30
2010,11,17,13,01,7.30
2010,11,17,13,02,7.30
2010,11,17,13,03,7.30
2010,11,17,13,04,7.30
2010,11,17,13,05,7.30
2010,11,17,13,06,7.30
2010,11,17,13,07,7.40
2010,11,17,13,08,7.40
2010,11,17,13,09,7.40
2010,11,17,13,10,7.40
2010,11,17,13,11,7.40
2010,11,17,13,12,7.40
2010,11,17,13,13,7.50
2010,11,17,13,14,7.50
2010,11,17,13,15,7.60
2010,11,17,13,16,7.70
2010,11,17,13,17,7.70
2010,11,17,13,18,7.80
2010,11,17,13,19,7.80
2010,11,17,13,20,7.90
2010,11,17,13,21,7.90
2010,11,17,13,22,7.90
2010,11,17,13,23,7.90
2010,11,17,13,24,7.90
2010,11,17,13,25,7.90
2010,11,17,13,26,7.90
2010,11,17,13,27,7.90
2010,11,17,13,28,8.00
2010,11,17,13,29,8.00
2010,11,17,13,30,8.00
2010,11,17,13,31,8.10
2010,11,17,13,32,8.10
2010,11,17,13,33,8.10
2010,11,17,13,34,8.20
2010,11,17,13,35,8.20
2010,11,17,13,36,8.20
2010,11,17,13,37,8.30
2010,11,17,13,38,8.30
2010,11,17,13,39,8.40
2010,11,17,13,40,8.50
2010,11,17,13,41,8.50
2010,11,17,13,42,8.60
2010,11,17,13,43,8.60
2010,11,17,13,44,8.60
2010,11,17,13,45,8.70
2010,11,17,13,46,8.70
2010,11,17,13,47,8.70
2010,11,17,13,48,8.70
2010,11,17,13,49,8.80
2010,11,17,13,50,8.80
2010,11,17,13,51,8.80
2010,11,17,13,52,8.80
2010,11,17,13,53,8.80
2010,11,17,13,54,8.80
2010,11,17,13,55,8.80
2010,11,17,13,56,8.80
2010,11,17,13,57,8.80
2010,11,17,13,58,8.80
2010,11,17,13,59,8.80
2010,11,17,14,00,8.80
2010,11,17,14,01,8.80
2010,11,17,14,02,8.90
2010,11,17,14,03,8.90
2010,11,17,14,04,8.90
2010,11,17,14,05,8.80
2010,11,17,14,06,8.80
2010,11,17,14,07,8.80
2010,11,17,14,08,8.80
2010,11,17,14,09,8.80
2010,11,17,14,10,8.80
2010,11,17,14,11,8.80
2010,11,17,14,12,8.80
2010,11,17,14,13,8.80
2010,11,17,14,14,8.80
2010,11,17,14,15,8.80
2010,11,17,14,16,8.80
2010,11,17,14,17,8.80
2010,11,17,14,18,8.80
2010,11,17,14,19,8.80
2010,11,17,14,20,8.80
2010,11,17,14,21,8.70
2010,11,17,14,22,8.70
2010,11,17,14,23,8.60
2010,11,17,14,24,8.60
2010,11,17,14,25,8.50
2010,11,17,14,26,8.40
2010,11,17,14,27,8.30
2010,11,17,14,28,8.30
2010,11,17,14,29,8.10
2010,11,17,14,30,8.00
2010,11,17,14,31,8.00
2010,11,17,14,32,7.80
2010,11,17,14,33,7.80
2010,11,17,14,34,7.70
2010,11,17,14,35,7.70
2010,11,17,14,36,7.60
2010,11,17,14,37,7.60
2010,11,17,14,38,7.50
2010,11,17,14,39,7.50
2010,11,17,14,40,7.40
2010,11,17,14,41,7.40
2010,11,17,14,42,7.40
2010,11,17,14,43,7.30
2010,11,17,14,44,7.40
2010,11,17,14,45,7.40
2010,11,17,14,46,7.30
2010,11,17,14,47,7.40
2010,11,17,14,48,7.40
2010,11,17,14,49,7.40
2010,11,17,14,50,7.40
2010,11,17,14,51,7.30
2010,11,17,14,52,7.30
2010,11,17,14,53,7.30
2010,11,17,14,54,7.30
2010,11,17,14,55,7.40
2010,11,17,14,56,7.40
2010,11,17,14,57,7.50
2010,11,17,14,58,7.50
2010,11,17,14,59,7.60
2010,11,17,15,00,7.60
2010,11,17,15,01,7.60
2010,11,17,15,02,7.60
2010,11,17,15,03,7.60
2010,11,17,15,04,7.50
2010,11,17,15,05,7.50
2010,11,17,15,06,7.50
2010,11,17,15,07,7.50
2010,11,17,15,08,7.50
2010,11,17,15,09,7.50
2010,11,17,15,10,7.50
2010,11,17,15,11,7.50
2010,11,17,15,12,7.50
2010,11,17,15,13,7.40
2010,11,17,15,14,7.40
2010,11,17,15,15,7.40
2010,11,17,15,16,7.40
2010,11,17,15,17,7.40
2010,11,17,15,18,7.40
2010,11,17,15,19,7.40
2010,11,17,15,20,7.40
2010,11,17,15,21,7.40
2010,11,17,15,22,7.30
2010,11,17,15,23,7.30
2010,11,17,15,24,7.30
2010,11,17,15,25,7.30
2010,11,17,15,26,7.30
2010,11,17,15,27,7.40
2010,11,17,15,28,7.40
2010,11,17,15,29,7.40
2010,11,17,15,30,7.40
2010,11,17,15,31,7.40
2010,11,17,15,32,7.40
2010,11,17,15,33,7.40
2010,11,17,15,34,7.40
2010,11,17,15,35,7.40
2010,11,17,15,36,7.40
2010,11,17,15,37,7.40
2010,11,17,15,38,7.40
2010,11,17,15,39,7.40
2010,11,17,15,40,7.40
2010,11,17,15,41,7.50
2010,11,17,15,42,7.50
2010,11,17,15,43,7.50
2010,11,17,15,44,7.50
2010,11,17,15,45,7.50
2010,11,17,15,46,7.40
2010,11,17,15,47,7.40
2010,11,17,15,48,7.30
2010,11,17,15,49,7.30
2010,11,17,15,50,7.30
2010,11,17,15,51,7.20
2010,11,17,15,52,7.20
2010,11,17,15,53,7.10
2010,11,17,15,54,7.10
2010,11,17,15,55,7.10
2010,11,17,15,56,7.10
2010,11,17,15,57,7.00
2010,11,17,15,58,7.00
2010,11,17,15,59,7.00
2010,11,17,16,00,6.90
2010,11,17,16,01,6.90
2010,11,17,16,02,6.90
2010,11,17,16,03,6.80
2010,11,17,16,04,6.80
2010,11,17,16,05,6.80
2010,11,17,16,06,6.80
2010,11,17,16,07,6.80
2010,11,17,16,08,6.80
2010,11,17,16,09,6.80
2010,11,17,16,10,6.80
2010,11,17,16,11,6.70
2010,11,17,16,12,6.70
2010,11,17,16,13,6.70
2010,11,17,16,14,6.70
2010,11,17,16,15,6.70
2010,11,17,16,16,6.70
2010,11,17,16,17,6.70
2010,11,17,16,18,6.70
2010,11,17,16,19,6.70
2010,11,17,16,20,6.70
2010,11,17,16,21,6.70
2010,11,17,16,22,6.70
2010,11,17,16,23,6.70
2010,11,17,16,24,6.70
2010,11,17,16,25,6.60
2010,11,17,16,26,6.60
2010,11,17,16,27,6.60
2010,11,17,16,28,6.50
2010,11,17,16,29,6.30
2010,11,17,16,30,6.20
2010,11,17,16,31,6.10
2010,11,17,16,32,6.00
2010,11,17,16,33,6.00
2010,11,17,16,34,5.90
2010,11,17,16,35,5.90
2010,11,17,16,36,5.80
2010,11,17,16,37,5.80
2010,11,17,16,38,5.70
2010,11,17,16,39,5.70
2010,11,17,16,40,5.60
2010,11,17,16,41,5.60
2010,11,17,16,42,5.50
2010,11,17,16,43,5.50
2010,11,17,16,44,5.40
2010,11,17,16,45,5.40
2010,11,17,16,46,5.40
2010,11,17,16,47,5.30
2010,11,17,16,48,5.30
2010,11,17,16,49,5.30
2010,11,17,16,50,5.20
2010,11,17,16,51,5.20
2010,11,17,16,52,5.20
2010,11,17,16,53,5.20
2010,11,17,16,54,5.20
2010,11,17,16,55,5.20
2010,11,17,16,56,5.20
2010,11,17,16,57,5.10
2010,11,17,16,58,5.10
2010,11,17,16,59,5.10
2010,11,17,17,00,5.10
2010,11,17,17,01,5.20
2010,11,17,17,02,5.10
2010,11,17,17,03,5.20
2010,11,17,17,04,5.20
2010,11,17,17,05,5.20
2010,11,17,17,06,5.20
2010,11,17,17,07,5.20
2010,11,17,17,08,5.20
2010,11,17,17,09,5.20
2010,11,17,17,10,5.20
2010,11,17,17,11,5.20
2010,11,17,17,12,5.20
2010,11,17,17,13,5.20
2010,11,17,17,14,5.20
2010,11,17,17,15,5.20
2010,11,17,17,16,5.30
2010,11,17,17,17,5.30
2010,11,17,17,18,5.30
2010,11,17,17,19,5.30
2010,11,17,17,20,5.30
2010,11,17,17,21,5.40
2010,11,17,17,22,5.40
2010,11,17,17,23,5.40
2010,11,17,17,24,5.40
2010,11,17,17,25,5.40
2010,11,17,17,26,5.40
2010,11,17,17,27,5.40
2010,11,17,17,28,5.40
2010,11,17,17,29,5.40
2010,11,17,17,30,5.40
2010,11,17,17,31,5.40
2010,11,17,17,32,5.40
2010,11,17,17,33,5.40
2010,11,17,17,34,5.40
2010,11,17,17,35,5.40
2010,11,17,17,36,5.40
2010,11,17,17,37,5.40
2010,11,17,17,38,5.30
2010,11,17,17,39,5.30
2010,11,17,17,40,5.30
2010,11,17,17,41,5.30
2010,11,17,17,42,5.30
2010,11,17,17,43,5.30
2010,11,17,17,44,5.30
2010,11,17,17,45,5.30
2010,11,17,17,46,5.30
2010,11,17,17,47,5.30
2010,11,17,17,48,5.30
2010,11,17,17,49,5.30
2010,11,17,17,50,5.30
2010,11,17,17,51,5.30
2010,11,17,17,52,5.20
2010,11,17,17,53,5.20
2010,11,17,17,54,5.20
2010,11,17,17,55,5.20
2010,11,17,17,56,5.20
2010,11,17,17,57,5.20
2010,11,17,17,58,5.20
2010,11,17,17,59,5.20
2010,11,17,18,00,5.20
2010,11,17,18,01,5.20
2010,11,17,18,02,5.20
2010,11,17,18,03,5.20
2010,11,17,18,04,5.10
2010,11,17,18,05,5.10
2010,11,17,18,06,5.10